Year,Month,Day,Hour,Minute,Value (Times are PST for temperature in C)
2010,07,06,00,00,13.70
2010,07,06,00,01,13.70
2010,07,06,00,02,13.60
2010,07,06,00,03,13.60
2010,07,06,00,04,13.60
2010,07,06,00,05,13.60
2010,07,06,00,06,13.60
2010,07,06,00,07,13.50
2010,07,06,00,08,13.50
2010,07,06,00,09,13.50
2010,07,06,00,10,13.40
2010,07,06,00,11,13.40
2010,07,06,00,12,13.40
2010,07,06,00,13,13.40
2010,07,06,00,14,13.40
2010,07,06,00,15,13.30
2010,07,06,00,16,13.30
2010,07,06,00,17,13.30
2010,07,06,00,18,13.30
2010,07,06,00,19,13.30
2010,07,06,00,20,13.30
2010,07,06,00,21,13.30
2010,07,06,00,22,13.30
2010,07,06,00,23,13.30
2010,07,06,00,24,13.30
2010,07,06,00,25,13.20
2010,07,06,00,26,13.20
2010,07,06,00,27,13.20
2010,07,06,00,28,13.20
2010,07,06,00,29,13.20
2010,07,06,00,30,13.20
2010,07,06,00,31,13.10
2010,07,06,00,32,13.10
2010,07,06,00,33,13.10
2010,07,06,00,34,13.10
2010,07,06,00,35,13.10
2010,07,06,00,36,13.10
2010,07,06,00,37,13.00
2010,07,06,00,38,13.00
2010,07,06,00,39,13.00
2010,07,06,00,40,13.00
2010,07,06,00,41,13.00
2010,07,06,00,42,12.90
2010,07,06,00,43,12.90
2010,07,06,00,44,12.90
2010,07,06,00,45,12.80
2010,07,06,00,46,12.80
2010,07,06,00,47,12.80
2010,07,06,00,48,12.80
2010,07,06,00,49,12.90
2010,07,06,00,50,12.80
2010,07,06,00,51,12.80
2010,07,06,00,52,12.80
2010,07,06,00,53,12.80
2010,07,06,00,54,12.80
2010,07,06,00,55,12.80
2010,07,06,00,56,12.80
2010,07,06,00,57,12.80
2010,07,06,00,58,12.80
2010,07,06,00,59,12.80
2010,07,06,01,00,12.80
2010,07,06,01,01,12.80
2010,07,06,01,02,12.80
2010,07,06,01,03,12.80
2010,07,06,01,04,12.80
2010,07,06,01,05,12.80
2010,07,06,01,06,12.80
2010,07,06,01,07,12.80
2010,07,06,01,08,12.90
2010,07,06,01,09,12.90
2010,07,06,01,10,12.90
2010,07,06,01,11,12.90
2010,07,06,01,12,12.90
2010,07,06,01,13,12.90
2010,07,06,01,14,13.00
2010,07,06,01,15,13.00
2010,07,06,01,16,13.00
2010,07,06,01,17,13.10
2010,07,06,01,18,13.10
2010,07,06,01,19,13.20
2010,07,06,01,20,13.20
2010,07,06,01,21,13.30
2010,07,06,01,22,13.30
2010,07,06,01,23,13.30
2010,07,06,01,24,13.30
2010,07,06,01,25,13.30
2010,07,06,01,26,13.30
2010,07,06,01,27,13.30
2010,07,06,01,28,13.30
2010,07,06,01,29,13.30
2010,07,06,01,30,13.30
2010,07,06,01,31,13.30
2010,07,06,01,32,13.30
2010,07,06,01,33,13.30
2010,07,06,01,34,13.30
2010,07,06,01,35,13.30
2010,07,06,01,36,13.30
2010,07,06,01,37,13.30
2010,07,06,01,38,13.30
2010,07,06,01,39,13.30
2010,07,06,01,40,13.30
2010,07,06,01,41,13.20
2010,07,06,01,42,13.30
2010,07,06,01,43,13.30
2010,07,06,01,44,13.30
2010,07,06,01,45,13.30
2010,07,06,01,46,13.30
2010,07,06,01,47,13.30
2010,07,06,01,48,13.20
2010,07,06,01,49,13.20
2010,07,06,01,50,13.20
2010,07,06,01,51,13.20
2010,07,06,01,52,13.20
2010,07,06,01,53,13.20
2010,07,06,01,54,13.20
2010,07,06,01,55,13.20
2010,07,06,01,56,13.20
2010,07,06,01,57,13.20
2010,07,06,01,58,13.20
2010,07,06,01,59,13.10
2010,07,06,02,00,13.00
2010,07,06,02,01,13.00
2010,07,06,02,02,12.90
2010,07,06,02,03,12.80
2010,07,06,02,04,12.80
2010,07,06,02,05,12.80
2010,07,06,02,06,12.80
2010,07,06,02,07,12.80
2010,07,06,02,08,12.80
2010,07,06,02,09,12.80
2010,07,06,02,10,12.80
2010,07,06,02,11,12.80
2010,07,06,02,12,12.80
2010,07,06,02,13,12.80
2010,07,06,02,14,12.80
2010,07,06,02,15,12.80
2010,07,06,02,16,12.80
2010,07,06,02,17,12.80
2010,07,06,02,18,12.80
2010,07,06,02,19,12.70
2010,07,06,02,20,12.70
2010,07,06,02,21,12.70
2010,07,06,02,22,12.70
2010,07,06,02,23,12.80
2010,07,06,02,24,12.80
2010,07,06,02,25,12.80
2010,07,06,02,26,12.80
2010,07,06,02,27,12.80
2010,07,06,02,28,12.70
2010,07,06,02,29,12.70
2010,07,06,02,30,12.70
2010,07,06,02,31,12.70
2010,07,06,02,32,12.70
2010,07,06,02,33,12.70
2010,07,06,02,34,12.70
2010,07,06,02,35,12.70
2010,07,06,02,36,12.70
2010,07,06,02,37,12.70
2010,07,06,02,38,12.70
2010,07,06,02,39,12.70
2010,07,06,02,40,12.70
2010,07,06,02,41,12.70
2010,07,06,02,42,12.70
2010,07,06,02,43,12.70
2010,07,06,02,44,12.70
2010,07,06,02,45,12.70
2010,07,06,02,46,12.70
2010,07,06,02,47,12.70
2010,07,06,02,48,12.70
2010,07,06,02,49,12.80
2010,07,06,02,50,12.80
2010,07,06,02,51,12.80
2010,07,06,02,52,12.80
2010,07,06,02,53,12.80
2010,07,06,02,54,12.80
2010,07,06,02,55,12.80
2010,07,06,02,56,12.80
2010,07,06,02,57,12.80
2010,07,06,02,58,12.80
2010,07,06,02,59,12.80
2010,07,06,03,00,12.80
2010,07,06,03,01,12.80
2010,07,06,03,02,12.80
2010,07,06,03,03,12.80
2010,07,06,03,04,12.80
2010,07,06,03,05,12.80
2010,07,06,03,06,12.80
2010,07,06,03,07,12.80
2010,07,06,03,08,12.80
2010,07,06,03,09,12.80
2010,07,06,03,10,12.80
2010,07,06,03,11,12.80
2010,07,06,03,12,12.80
2010,07,06,03,13,12.80
2010,07,06,03,14,12.70
2010,07,06,03,15,12.70
2010,07,06,03,16,12.70
2010,07,06,03,17,12.70
2010,07,06,03,18,12.70
2010,07,06,03,19,12.70
2010,07,06,03,20,12.70
2010,07,06,03,21,12.70
2010,07,06,03,22,12.60
2010,07,06,03,23,12.60
2010,07,06,03,24,12.60
2010,07,06,03,25,12.50
2010,07,06,03,26,12.50
2010,07,06,03,27,12.40
2010,07,06,03,28,12.40
2010,07,06,03,29,12.30
2010,07,06,03,30,12.30
2010,07,06,03,31,12.20
2010,07,06,03,32,12.10
2010,07,06,03,33,12.00
2010,07,06,03,34,12.00
2010,07,06,03,35,11.90
2010,07,06,03,36,11.80
2010,07,06,03,37,11.80
2010,07,06,03,38,11.80
2010,07,06,03,39,11.80
2010,07,06,03,40,11.80
2010,07,06,03,41,11.80
2010,07,06,03,42,11.80
2010,07,06,03,43,11.80
2010,07,06,03,44,11.80
2010,07,06,03,45,11.80
2010,07,06,03,46,11.80
2010,07,06,03,47,11.80
2010,07,06,03,48,11.80
2010,07,06,03,49,11.80
2010,07,06,03,50,11.80
2010,07,06,03,51,11.80
2010,07,06,03,52,11.80
2010,07,06,03,53,11.90
2010,07,06,03,54,11.90
2010,07,06,03,55,11.90
2010,07,06,03,56,11.80
2010,07,06,03,57,11.80
2010,07,06,03,58,11.80
2010,07,06,03,59,11.80
2010,07,06,04,00,11.80
2010,07,06,04,01,11.80
2010,07,06,04,02,11.80
2010,07,06,04,03,11.80
2010,07,06,04,04,11.80
2010,07,06,04,05,11.80
2010,07,06,04,06,11.80
2010,07,06,04,07,11.80
2010,07,06,04,08,11.90
2010,07,06,04,09,11.90
2010,07,06,04,10,11.90
2010,07,06,04,11,12.00
2010,07,06,04,12,12.00
2010,07,06,04,13,12.00
2010,07,06,04,14,12.00
2010,07,06,04,15,12.00
2010,07,06,04,16,12.00
2010,07,06,04,17,12.00
2010,07,06,04,18,12.00
2010,07,06,04,19,12.00
2010,07,06,04,20,12.00
2010,07,06,04,21,12.00
2010,07,06,04,22,12.00
2010,07,06,04,23,12.00
2010,07,06,04,24,11.90
2010,07,06,04,25,11.90
2010,07,06,04,26,11.90
2010,07,06,04,27,11.90
2010,07,06,04,28,11.90
2010,07,06,04,29,11.80
2010,07,06,04,30,11.80
2010,07,06,04,31,11.80
2010,07,06,04,32,11.80
2010,07,06,04,33,11.80
2010,07,06,04,34,11.80
2010,07,06,04,35,11.80
2010,07,06,04,36,11.80
2010,07,06,04,37,11.80
2010,07,06,04,38,11.80
2010,07,06,04,39,11.80
2010,07,06,04,40,11.80
2010,07,06,04,41,11.80
2010,07,06,04,42,11.80
2010,07,06,04,43,11.80
2010,07,06,04,44,11.80
2010,07,06,04,45,11.80
2010,07,06,04,46,11.80
2010,07,06,04,47,11.80
2010,07,06,04,48,11.80
2010,07,06,04,49,11.80
2010,07,06,04,50,11.80
2010,07,06,04,51,11.80
2010,07,06,04,52,11.80
2010,07,06,04,53,11.80
2010,07,06,04,54,11.80
2010,07,06,04,55,11.80
2010,07,06,04,56,11.80
2010,07,06,04,57,11.80
2010,07,06,04,58,11.80
2010,07,06,04,59,11.80
2010,07,06,05,00,11.80
2010,07,06,05,01,11.80
2010,07,06,05,02,11.80
2010,07,06,05,03,11.80
2010,07,06,05,04,11.80
2010,07,06,05,05,11.70
2010,07,06,05,06,11.70
2010,07,06,05,07,11.70
2010,07,06,05,08,11.70
2010,07,06,05,09,11.70
2010,07,06,05,10,11.70
2010,07,06,05,11,11.60
2010,07,06,05,12,11.60
2010,07,06,05,13,11.60
2010,07,06,05,14,11.60
2010,07,06,05,15,11.60
2010,07,06,05,16,11.60
2010,07,06,05,17,11.60
2010,07,06,05,18,11.60
2010,07,06,05,19,11.70
2010,07,06,05,20,11.70
2010,07,06,05,21,11.70
2010,07,06,05,22,11.70
2010,07,06,05,23,11.70
2010,07,06,05,24,11.70
2010,07,06,05,25,11.70
2010,07,06,05,26,11.70
2010,07,06,05,27,11.70
2010,07,06,05,28,11.70
2010,07,06,05,29,11.70
2010,07,06,05,30,11.60
2010,07,06,05,31,11.60
2010,07,06,05,32,11.60
2010,07,06,05,33,11.60
2010,07,06,05,34,11.60
2010,07,06,05,35,11.60
2010,07,06,05,36,11.60
2010,07,06,05,37,11.50
2010,07,06,05,38,11.40
2010,07,06,05,39,11.40
2010,07,06,05,40,11.40
2010,07,06,05,41,11.40
2010,07,06,05,42,11.40
2010,07,06,05,43,11.40
2010,07,06,05,44,11.40
2010,07,06,05,45,11.40
2010,07,06,05,46,11.40
2010,07,06,05,47,11.40
2010,07,06,05,48,11.40
2010,07,06,05,49,11.40
2010,07,06,05,50,11.40
2010,07,06,05,51,11.40
2010,07,06,05,52,11.40
2010,07,06,05,53,11.40
2010,07,06,05,54,11.40
2010,07,06,05,55,11.40
2010,07,06,05,56,11.40
2010,07,06,05,57,11.40
2010,07,06,05,58,11.40
2010,07,06,05,59,11.40
2010,07,06,06,00,11.40
2010,07,06,06,01,11.50
2010,07,06,06,02,11.60
2010,07,06,06,03,11.60
2010,07,06,06,04,11.60
2010,07,06,06,05,11.60
2010,07,06,06,06,11.70
2010,07,06,06,07,11.70
2010,07,06,06,08,11.80
2010,07,06,06,09,11.80
2010,07,06,06,10,11.80
2010,07,06,06,11,11.90
2010,07,06,06,12,11.90
2010,07,06,06,13,11.90
2010,07,06,06,14,12.00
2010,07,06,06,15,12.00
2010,07,06,06,16,12.10
2010,07,06,06,17,12.10
2010,07,06,06,18,12.20
2010,07,06,06,19,12.20
2010,07,06,06,20,12.30
2010,07,06,06,21,12.30
2010,07,06,06,22,12.40
2010,07,06,06,23,12.50
2010,07,06,06,24,12.50
2010,07,06,06,25,12.60
2010,07,06,06,26,12.60
2010,07,06,06,27,12.60
2010,07,06,06,28,12.60
2010,07,06,06,29,12.60
2010,07,06,06,30,12.70
2010,07,06,06,31,12.80
2010,07,06,06,32,12.80
2010,07,06,06,33,12.80
2010,07,06,06,34,12.90
2010,07,06,06,35,12.90
2010,07,06,06,36,13.00
2010,07,06,06,37,13.10
2010,07,06,06,38,13.10
2010,07,06,06,39,13.20
2010,07,06,06,40,13.30
2010,07,06,06,41,13.30
2010,07,06,06,42,13.40
2010,07,06,06,43,13.50
2010,07,06,06,44,13.50
2010,07,06,06,45,13.60
2010,07,06,06,46,13.60
2010,07,06,06,47,13.60
2010,07,06,06,48,13.70
2010,07,06,06,49,13.70
2010,07,06,06,50,13.70
2010,07,06,06,51,13.80
2010,07,06,06,52,13.90
2010,07,06,06,53,13.90
2010,07,06,06,54,14.00
2010,07,06,06,55,14.10
2010,07,06,06,56,14.10
2010,07,06,06,57,14.20
2010,07,06,06,58,14.20
2010,07,06,06,59,14.30
2010,07,06,07,00,14.30
2010,07,06,07,01,14.30
2010,07,06,07,02,14.30
2010,07,06,07,03,14.30
2010,07,06,07,04,14.20
2010,07,06,07,05,14.20
2010,07,06,07,06,14.10
2010,07,06,07,07,14.00
2010,07,06,07,08,13.90
2010,07,06,07,09,13.90
2010,07,06,07,10,13.80
2010,07,06,07,11,13.70
2010,07,06,07,12,13.70
2010,07,06,07,13,13.70
2010,07,06,07,14,13.70
2010,07,06,07,15,13.60
2010,07,06,07,16,13.60
2010,07,06,07,17,13.70
2010,07,06,07,18,13.70
2010,07,06,07,19,13.70
2010,07,06,07,20,13.70
2010,07,06,07,21,13.80
2010,07,06,07,22,13.90
2010,07,06,07,23,13.90
2010,07,06,07,24,13.90
2010,07,06,07,25,13.90
2010,07,06,07,26,13.90
2010,07,06,07,27,13.90
2010,07,06,07,28,13.90
2010,07,06,07,29,13.90
2010,07,06,07,30,14.00
2010,07,06,07,31,14.40
2010,07,06,07,32,14.40
2010,07,06,07,33,14.40
2010,07,06,07,34,14.30
2010,07,06,07,35,14.20
2010,07,06,07,36,14.20
2010,07,06,07,37,14.20
2010,07,06,07,38,14.20
2010,07,06,07,39,14.30
2010,07,06,07,40,14.30
2010,07,06,07,41,14.40
2010,07,06,07,42,14.40
2010,07,06,07,43,14.50
2010,07,06,07,44,14.50
2010,07,06,07,45,14.60
2010,07,06,07,46,14.60
2010,07,06,07,47,14.70
2010,07,06,07,48,14.80
2010,07,06,07,49,14.90
2010,07,06,07,50,15.00
2010,07,06,07,51,15.10
2010,07,06,07,52,15.20
2010,07,06,07,53,15.30
2010,07,06,07,54,15.30
2010,07,06,07,55,15.40
2010,07,06,07,56,15.50
2010,07,06,07,57,15.50
2010,07,06,07,58,15.60
2010,07,06,07,59,15.60
2010,07,06,08,00,15.60
2010,07,06,08,01,15.70
2010,07,06,08,02,15.70
2010,07,06,08,03,15.70
2010,07,06,08,04,15.80
2010,07,06,08,05,15.80
2010,07,06,08,06,15.80
2010,07,06,08,07,15.80
2010,07,06,08,08,15.80
2010,07,06,08,09,15.80
2010,07,06,08,10,15.80
2010,07,06,08,11,15.90
2010,07,06,08,12,15.90
2010,07,06,08,13,15.90
2010,07,06,08,14,15.90
2010,07,06,08,15,15.90
2010,07,06,08,16,15.90
2010,07,06,08,17,16.00
2010,07,06,08,18,16.10
2010,07,06,08,19,16.10
2010,07,06,08,20,16.10
2010,07,06,08,21,16.10
2010,07,06,08,22,16.10
2010,07,06,08,23,16.10
2010,07,06,08,24,16.10
2010,07,06,08,25,16.20
2010,07,06,08,26,16.20
2010,07,06,08,27,16.20
2010,07,06,08,28,16.20
2010,07,06,08,29,16.20
2010,07,06,08,30,16.20
2010,07,06,08,31,16.20
2010,07,06,08,32,16.20
2010,07,06,08,33,16.20
2010,07,06,08,34,16.20
2010,07,06,08,35,16.30
2010,07,06,08,36,16.20
2010,07,06,08,37,16.20
2010,07,06,08,38,16.20
2010,07,06,08,39,16.30
2010,07,06,08,40,16.30
2010,07,06,08,41,16.30
2010,07,06,08,42,16.40
2010,07,06,08,43,16.40
2010,07,06,08,44,16.40
2010,07,06,08,45,16.40
2010,07,06,08,46,16.40
2010,07,06,08,47,16.40
2010,07,06,08,48,16.30
2010,07,06,08,49,16.30
2010,07,06,08,50,16.40
2010,07,06,08,51,16.40
2010,07,06,08,52,16.40
2010,07,06,08,53,16.40
2010,07,06,08,54,16.40
2010,07,06,08,55,16.50
2010,07,06,08,56,16.60
2010,07,06,08,57,16.60
2010,07,06,08,58,16.70
2010,07,06,08,59,16.70
2010,07,06,09,00,16.70
2010,07,06,09,01,16.70
2010,07,06,09,02,16.70
2010,07,06,09,03,16.70
2010,07,06,09,04,16.70
2010,07,06,09,05,16.60
2010,07,06,09,06,16.70
2010,07,06,09,07,16.70
2010,07,06,09,08,16.70
2010,07,06,09,09,16.70
2010,07,06,09,10,16.70
2010,07,06,09,11,16.70
2010,07,06,09,12,16.80
2010,07,06,09,13,16.80
2010,07,06,09,14,16.90
2010,07,06,09,15,16.90
2010,07,06,09,16,17.00
2010,07,06,09,17,17.00
2010,07,06,09,18,17.00
2010,07,06,09,19,16.90
2010,07,06,09,20,16.90
2010,07,06,09,21,17.00
2010,07,06,09,22,17.00
2010,07,06,09,23,17.00
2010,07,06,09,24,17.00
2010,07,06,09,25,17.00
2010,07,06,09,26,17.00
2010,07,06,09,27,17.00
2010,07,06,09,28,17.00
2010,07,06,09,29,17.00
2010,07,06,09,30,17.00
2010,07,06,09,31,17.00
2010,07,06,09,32,17.00
2010,07,06,09,33,16.90
2010,07,06,09,34,17.00
2010,07,06,09,35,17.00
2010,07,06,09,36,16.90
2010,07,06,09,37,17.00
2010,07,06,09,38,17.00
2010,07,06,09,39,17.10
2010,07,06,09,40,17.20
2010,07,06,09,41,17.20
2010,07,06,09,42,17.20
2010,07,06,09,43,17.20
2010,07,06,09,44,17.20
2010,07,06,09,45,17.20
2010,07,06,09,46,17.30
2010,07,06,09,47,17.30
2010,07,06,09,48,17.40
2010,07,06,09,49,17.40
2010,07,06,09,50,17.40
2010,07,06,09,51,17.40
2010,07,06,09,52,17.50
2010,07,06,09,53,17.60
2010,07,06,09,54,17.70
2010,07,06,09,55,17.70
2010,07,06,09,56,17.80
2010,07,06,09,57,17.80
2010,07,06,09,58,17.80
2010,07,06,09,59,17.80
2010,07,06,10,00,17.90
2010,07,06,10,01,17.90
2010,07,06,10,02,17.90
2010,07,06,10,03,17.90
2010,07,06,10,04,17.80
2010,07,06,10,05,17.80
2010,07,06,10,06,17.90
2010,07,06,10,07,17.90
2010,07,06,10,08,17.90
2010,07,06,10,09,17.90
2010,07,06,10,10,17.80
2010,07,06,10,11,17.80
2010,07,06,10,12,17.80
2010,07,06,10,13,17.80
2010,07,06,10,14,17.80
2010,07,06,10,15,17.90
2010,07,06,10,16,17.90
2010,07,06,10,17,17.90
2010,07,06,10,18,17.90
2010,07,06,10,19,17.90
2010,07,06,10,20,17.90
2010,07,06,10,21,17.90
2010,07,06,10,22,17.90
2010,07,06,10,23,18.00
2010,07,06,10,24,18.10
2010,07,06,10,25,18.10
2010,07,06,10,26,18.20
2010,07,06,10,27,18.20
2010,07,06,10,28,18.30
2010,07,06,10,29,18.30
2010,07,06,10,30,18.40
2010,07,06,10,31,18.50
2010,07,06,10,32,18.60
2010,07,06,10,33,18.70
2010,07,06,10,34,18.70
2010,07,06,10,35,18.80
2010,07,06,10,36,18.80
2010,07,06,10,37,18.90
2010,07,06,10,38,18.90
2010,07,06,10,39,18.80
2010,07,06,10,40,18.90
2010,07,06,10,41,18.90
2010,07,06,10,42,18.70
2010,07,06,10,43,18.60
2010,07,06,10,44,18.60
2010,07,06,10,45,18.60
2010,07,06,10,46,18.60
2010,07,06,10,47,18.60
2010,07,06,10,48,18.70
2010,07,06,10,49,18.70
2010,07,06,10,50,18.70
2010,07,06,10,51,18.80
2010,07,06,10,52,18.90
2010,07,06,10,53,18.90
2010,07,06,10,54,18.90
2010,07,06,10,55,18.90
2010,07,06,10,56,18.90
2010,07,06,10,57,19.10
2010,07,06,10,58,19.10
2010,07,06,10,59,19.30
2010,07,06,11,00,19.30
2010,07,06,11,01,19.40
2010,07,06,11,02,19.40
2010,07,06,11,03,19.30
2010,07,06,11,04,19.20
2010,07,06,11,05,19.20
2010,07,06,11,06,19.20
2010,07,06,11,07,19.10
2010,07,06,11,08,19.10
2010,07,06,11,09,19.20
2010,07,06,11,10,19.10
2010,07,06,11,11,19.10
2010,07,06,11,12,19.10
2010,07,06,11,13,19.10
2010,07,06,11,14,19.10
2010,07,06,11,15,19.10
2010,07,06,11,16,19.10
2010,07,06,11,17,19.10
2010,07,06,11,18,19.10
2010,07,06,11,19,19.10
2010,07,06,11,20,19.20
2010,07,06,11,21,19.20
2010,07,06,11,22,19.20
2010,07,06,11,23,19.40
2010,07,06,11,24,19.40
2010,07,06,11,25,19.40
2010,07,06,11,26,19.50
2010,07,06,11,27,19.50
2010,07,06,11,28,19.50
2010,07,06,11,29,19.40
2010,07,06,11,30,19.50
2010,07,06,11,31,19.60
2010,07,06,11,32,19.60
2010,07,06,11,33,19.60
2010,07,06,11,34,19.60
2010,07,06,11,35,19.60
2010,07,06,11,36,19.50
2010,07,06,11,37,19.50
2010,07,06,11,38,19.50
2010,07,06,11,39,19.50
2010,07,06,11,40,19.50
2010,07,06,11,41,19.50
2010,07,06,11,42,19.50
2010,07,06,11,43,19.60
2010,07,06,11,44,19.80
2010,07,06,11,45,19.80
2010,07,06,11,46,19.80
2010,07,06,11,47,19.90
2010,07,06,11,48,19.90
2010,07,06,11,49,19.90
2010,07,06,11,50,20.00
2010,07,06,11,51,20.10
2010,07,06,11,52,20.20
2010,07,06,11,53,20.20
2010,07,06,11,54,20.20
2010,07,06,11,55,20.20
2010,07,06,11,56,20.20
2010,07,06,11,57,20.30
2010,07,06,11,58,20.40
2010,07,06,11,59,20.40
2010,07,06,12,00,20.40
2010,07,06,12,01,20.50
2010,07,06,12,02,20.40
2010,07,06,12,03,20.30
2010,07,06,12,04,20.30
2010,07,06,12,05,20.30
2010,07,06,12,06,20.40
2010,07,06,12,07,20.40
2010,07,06,12,08,20.50
2010,07,06,12,09,20.60
2010,07,06,12,10,20.70
2010,07,06,12,11,20.70
2010,07,06,12,12,20.70
2010,07,06,12,13,20.70
2010,07,06,12,14,20.70
2010,07,06,12,15,20.60
2010,07,06,12,16,20.60
2010,07,06,12,17,20.60
2010,07,06,12,18,20.60
2010,07,06,12,19,20.70
2010,07,06,12,20,20.70
2010,07,06,12,21,20.80
2010,07,06,12,22,20.80
2010,07,06,12,23,20.90
2010,07,06,12,24,20.90
2010,07,06,12,25,20.90
2010,07,06,12,26,20.90
2010,07,06,12,27,20.90
2010,07,06,12,28,20.90
2010,07,06,12,29,21.00
2010,07,06,12,30,21.10
2010,07,06,12,31,21.20
2010,07,06,12,32,21.30
2010,07,06,12,33,21.30
2010,07,06,12,34,21.30
2010,07,06,12,35,21.30
2010,07,06,12,36,21.20
2010,07,06,12,37,21.20
2010,07,06,12,38,21.20
2010,07,06,12,39,21.10
2010,07,06,12,40,21.10
2010,07,06,12,41,21.10
2010,07,06,12,42,21.00
2010,07,06,12,43,21.00
2010,07,06,12,44,21.00
2010,07,06,12,45,21.00
2010,07,06,12,46,21.00
2010,07,06,12,47,21.00
2010,07,06,12,48,21.00
2010,07,06,12,49,21.00
2010,07,06,12,50,21.10
2010,07,06,12,51,21.20
2010,07,06,12,52,21.10
2010,07,06,12,53,21.00
2010,07,06,12,54,21.00
2010,07,06,12,55,21.00
2010,07,06,12,56,21.00
2010,07,06,12,57,21.10
2010,07,06,12,58,21.20
2010,07,06,12,59,21.30
2010,07,06,13,00,21.30
2010,07,06,13,01,21.30
2010,07,06,13,02,21.30
2010,07,06,13,03,21.40
2010,07,06,13,04,21.50
2010,07,06,13,05,21.60
2010,07,06,13,06,21.60
2010,07,06,13,07,21.70
2010,07,06,13,08,21.80
2010,07,06,13,09,21.80
2010,07,06,13,10,21.80
2010,07,06,13,11,21.80
2010,07,06,13,12,21.80
2010,07,06,13,13,21.90
2010,07,06,13,14,21.90
2010,07,06,13,15,22.00
2010,07,06,13,16,22.00
2010,07,06,13,17,21.90
2010,07,06,13,18,21.80
2010,07,06,13,19,21.70
2010,07,06,13,20,21.70
2010,07,06,13,21,21.60
2010,07,06,13,22,21.60
2010,07,06,13,23,21.70
2010,07,06,13,24,21.60
2010,07,06,13,25,21.60
2010,07,06,13,26,21.60
2010,07,06,13,27,21.70
2010,07,06,13,28,21.80
2010,07,06,13,29,21.90
2010,07,06,13,30,21.90
2010,07,06,13,31,22.00
2010,07,06,13,32,22.10
2010,07,06,13,33,22.20
2010,07,06,13,34,22.20
2010,07,06,13,35,22.20
2010,07,06,13,36,22.20
2010,07,06,13,37,22.20
2010,07,06,13,38,22.20
2010,07,06,13,39,22.10
2010,07,06,13,40,22.10
2010,07,06,13,41,22.10
2010,07,06,13,42,22.00
2010,07,06,13,43,22.00
2010,07,06,13,44,22.00
2010,07,06,13,45,22.00
2010,07,06,13,46,22.00
2010,07,06,13,47,22.10
2010,07,06,13,48,22.10
2010,07,06,13,49,22.30
2010,07,06,13,50,22.60
2010,07,06,13,51,22.70
2010,07,06,13,52,22.80
2010,07,06,13,53,22.80
2010,07,06,13,54,22.80
2010,07,06,13,55,22.70
2010,07,06,13,56,22.70
2010,07,06,13,57,22.70
2010,07,06,13,58,22.70
2010,07,06,13,59,22.60
2010,07,06,14,00,22.50
2010,07,06,14,01,22.50
2010,07,06,14,02,22.50
2010,07,06,14,03,22.60
2010,07,06,14,04,22.70
2010,07,06,14,05,22.80
2010,07,06,14,06,22.80
2010,07,06,14,07,22.80
2010,07,06,14,08,22.70
2010,07,06,14,09,22.70
2010,07,06,14,10,22.80
2010,07,06,14,11,22.90
2010,07,06,14,12,22.90
2010,07,06,14,13,22.90
2010,07,06,14,14,22.90
2010,07,06,14,15,22.90
2010,07,06,14,16,22.90
2010,07,06,14,17,22.90
2010,07,06,14,18,22.90
2010,07,06,14,19,22.90
2010,07,06,14,20,22.90
2010,07,06,14,21,22.90
2010,07,06,14,22,22.90
2010,07,06,14,23,22.90
2010,07,06,14,24,23.00
2010,07,06,14,25,23.10
2010,07,06,14,26,23.20
2010,07,06,14,27,23.10
2010,07,06,14,28,23.10
2010,07,06,14,29,23.10
2010,07,06,14,30,23.00
2010,07,06,14,31,23.00
2010,07,06,14,32,23.00
2010,07,06,14,33,23.10
2010,07,06,14,34,23.10
2010,07,06,14,35,23.10
2010,07,06,14,36,23.30
2010,07,06,14,37,23.30
2010,07,06,14,38,23.50
2010,07,06,14,39,23.60
2010,07,06,14,40,23.60
2010,07,06,14,41,23.60
2010,07,06,14,42,23.60
2010,07,06,14,43,23.60
2010,07,06,14,44,23.60
2010,07,06,14,45,23.40
2010,07,06,14,46,23.20
2010,07,06,14,47,23.00
2010,07,06,14,48,22.80
2010,07,06,14,49,22.60
2010,07,06,14,50,22.60
2010,07,06,14,51,22.60
2010,07,06,14,52,22.60
2010,07,06,14,53,22.70
2010,07,06,14,54,22.80
2010,07,06,14,55,22.80
2010,07,06,14,56,22.80
2010,07,06,14,57,22.90
2010,07,06,14,58,22.90
2010,07,06,14,59,22.90
2010,07,06,15,00,22.90
2010,07,06,15,01,22.80
2010,07,06,15,02,22.70
2010,07,06,15,03,22.70
2010,07,06,15,04,22.70
2010,07,06,15,05,22.80
2010,07,06,15,06,22.90
2010,07,06,15,07,23.00
2010,07,06,15,08,23.30
2010,07,06,15,09,23.40
2010,07,06,15,10,23.60
2010,07,06,15,11,23.70
2010,07,06,15,12,23.80
2010,07,06,15,13,23.90
2010,07,06,15,14,23.90
2010,07,06,15,15,24.10
2010,07,06,15,16,24.10
2010,07,06,15,17,24.20
2010,07,06,15,18,24.30
2010,07,06,15,19,24.30
2010,07,06,15,20,24.30
2010,07,06,15,21,24.30
2010,07,06,15,22,24.30
2010,07,06,15,23,24.40
2010,07,06,15,24,24.50
2010,07,06,15,25,24.60
2010,07,06,15,26,24.60
2010,07,06,15,27,24.60
2010,07,06,15,28,24.70
2010,07,06,15,29,24.70
2010,07,06,15,30,24.70
2010,07,06,15,31,24.50
2010,07,06,15,32,24.30
2010,07,06,15,33,24.10
2010,07,06,15,34,24.00
2010,07,06,15,35,23.90
2010,07,06,15,36,23.90
2010,07,06,15,37,23.70
2010,07,06,15,38,23.50
2010,07,06,15,39,23.30
2010,07,06,15,40,23.20
2010,07,06,15,41,23.10
2010,07,06,15,42,23.00
2010,07,06,15,43,22.80
2010,07,06,15,44,22.50
2010,07,06,15,45,22.20
2010,07,06,15,46,21.90
2010,07,06,15,47,21.80
2010,07,06,15,48,21.60
2010,07,06,15,49,21.60
2010,07,06,15,50,21.60
2010,07,06,15,51,21.60
2010,07,06,15,52,21.60
2010,07,06,15,53,21.70
2010,07,06,15,54,21.90
2010,07,06,15,55,22.00
2010,07,06,15,56,22.10
2010,07,06,15,57,22.20
2010,07,06,15,58,22.20
2010,07,06,15,59,22.20
2010,07,06,16,00,22.20
2010,07,06,16,01,22.20
2010,07,06,16,02,22.30
2010,07,06,16,03,22.30
2010,07,06,16,04,22.30
2010,07,06,16,05,22.30
2010,07,06,16,06,22.30
2010,07,06,16,07,22.30
2010,07,06,16,08,22.30
2010,07,06,16,09,22.20
2010,07,06,16,10,22.20
2010,07,06,16,11,22.10
2010,07,06,16,12,22.00
2010,07,06,16,13,21.90
2010,07,06,16,14,21.80
2010,07,06,16,15,21.70
2010,07,06,16,16,21.50
2010,07,06,16,17,21.30
2010,07,06,16,18,21.30
2010,07,06,16,19,21.30
2010,07,06,16,20,21.30
2010,07,06,16,21,21.30
2010,07,06,16,22,21.30
2010,07,06,16,23,21.20
2010,07,06,16,24,21.20
2010,07,06,16,25,21.20
2010,07,06,16,26,21.20
2010,07,06,16,27,21.10
2010,07,06,16,28,21.10
2010,07,06,16,29,21.10
2010,07,06,16,30,21.10
2010,07,06,16,31,21.10
2010,07,06,16,32,21.00
2010,07,06,16,33,21.00
2010,07,06,16,34,21.00
2010,07,06,16,35,20.90
2010,07,06,16,36,20.90
2010,07,06,16,37,21.00
2010,07,06,16,38,21.10
2010,07,06,16,39,21.10
2010,07,06,16,40,21.10
2010,07,06,16,41,21.10
2010,07,06,16,42,21.20
2010,07,06,16,43,21.20
2010,07,06,16,44,21.20
2010,07,06,16,45,21.10
2010,07,06,16,46,21.10
2010,07,06,16,47,21.10
2010,07,06,16,48,21.20
2010,07,06,16,49,21.30
2010,07,06,16,50,21.30
2010,07,06,16,51,21.30
2010,07,06,16,52,21.30
2010,07,06,16,53,21.30
2010,07,06,16,54,21.30
2010,07,06,16,55,21.30
2010,07,06,16,56,21.20
2010,07,06,16,57,21.20
2010,07,06,16,58,21.20
2010,07,06,16,59,21.30
2010,07,06,17,00,21.30
2010,07,06,17,01,21.30
2010,07,06,17,02,21.20
2010,07,06,17,03,21.10
2010,07,06,17,04,21.10
2010,07,06,17,05,21.00
2010,07,06,17,06,21.00
2010,07,06,17,07,21.00
2010,07,06,17,08,20.90
2010,07,06,17,09,21.00
2010,07,06,17,10,21.00
2010,07,06,17,11,20.90
2010,07,06,17,12,20.90
2010,07,06,17,13,20.90
2010,07,06,17,14,20.90
2010,07,06,17,15,20.80
2010,07,06,17,16,20.80
2010,07,06,17,17,20.80
2010,07,06,17,18,20.70
2010,07,06,17,19,20.60